Home   Weather   Huntsville   Past weeks

Flag for USA Past Weather in Huntsville, Alabama, USA — Yesterday and Last 2 Weeks

Now
38 °F

Clear.


Feels Like: 34 °F
Forecast: 28 / 54 °F
Wind: 5 mph from Northeast

Location: Huntsville International / Jones Field

Current Time: Dec 10, 2016 at 8:14:49 pm

Latest Report: Dec 10, 2016 at 6:53 pm


Visibility: 10 mi

Pressure: 30.43 "Hg

Humidity: 41%

Dew Point: 16 °F

Location of HuntsvilleLocation

Past Weather in Huntsville — Graph

°F

Huntsville Temperature Yesterday

Maximum temperature yesterday: 39 °F (at 2:53 pm)
Minimum temperature yesterday: 25 °F (at 6:53 am)
Average temperature yesterday: 31 °F

High & Low Weather Summary for the Past Weeks

 TemperatureHumidityPressure
High73 °F (Nov 29, 1:53 pm)100% (Nov 28, 9:53 pm)30.61 "Hg (Nov 28, 9:53 pm)
Low24 °F (Dec 10, 5:53 am)26% (Nov 27, 1:53 pm)29.48 "Hg (Nov 28, 5:53 pm)
Average48 °F72%30.10 "Hg
* Reported Nov 25 6:53 pm — Dec 10 6:53 pm, Huntsville, Weather by CustomWeather, © 2016

Note: Actual official high and low records may vary slightly from our data, if they occured in-between our weather recording intervals... More about our weather records

Advertising

Huntsville Weather History for the Previous 24 Hours

Scroll right to see more
 ConditionsComfort  
Time TempWeatherWind HumidityBarometerVisibility
6:53 pm
Sat, Dec 10
38 °FClear.5 mph41%30.43 "Hg10 mi
5:53 pm39 °FClear.5 mph41%30.44 "Hg10 mi
4:53 pm40 °FPassing clouds.3 mph38%30.43 "Hg10 mi
3:53 pm45 °FPassing clouds.5 mph31%30.46 "Hg10 mi
2:53 pm46 °FPassing clouds.5 mph29%30.45 "Hg10 mi
1:53 pm45 °FPassing clouds.3 mph34%30.47 "Hg10 mi
12:53 pm44 °FSunny.3 mph34%30.48 "Hg10 mi
11:53 am41 °FSunny.8 mph35%30.52 "Hg10 mi
10:53 am39 °FPassing clouds.No wind43%30.56 "Hg10 mi
9:53 am37 °FPassing clouds.6 mph50%30.60 "Hg10 mi
8:53 am33 °FPassing clouds.No wind63%30.61 "Hg10 mi
7:53 am30 °FPassing clouds.No wind66%30.60 "Hg10 mi
6:53 am25 °FSunny.No wind75%30.59 "Hg10 mi
5:53 am24 °FClear.No wind81%30.58 "Hg10 mi
4:53 am25 °FClear.3 mph81%30.57 "Hg10 mi
3:53 am25 °FClear.No wind78%30.55 "Hg10 mi
2:53 am25 °FClear.5 mph81%30.55 "Hg10 mi
1:53 am27 °FClear.3 mph69%30.56 "Hg10 mi
12:53 am28 °FClear.5 mph72%30.56 "Hg10 mi
11:53 pm
Fri, Dec 9
29 °FClear.No wind69%30.57 "Hg10 mi
10:53 pm29 °FClear.5 mph69%30.57 "Hg10 mi
9:53 pm30 °FClear.5 mph66%30.56 "Hg10 mi
8:53 pm31 °FClear.6 mph69%30.54 "Hg10 mi
Weather by CustomWeather, © 2016

See weather overviewHow to use our weather pages